Location: Castifao
(42.5040°N, 9.1124°E)
Time: 03:28:04
(UTC+00:00)

Envisat - Pass Details

Date: 23 January 2020
Orbit: 764 x 766 km, 98.1° (Epoch: 18 February)

Event Time Altitude Azimuth Distance (km) Brightness Sun altitude
Rises 17:01:03 0° 160° (SSE) 3,219 6.2 -7.0°
Reaches altitude 10° 17:03:20 10° 159° (SSE) 2,297 5.5 -7.4°
Maximum altitude 17:08:23 76° 75° (ENE) 794 3.0 -8.2°
Drops below altitude 10° 17:13:29 10° 350° (N) 2,312 5.4 -9.1°
Sets 17:15:48 0° 349° (N) 3,243 6.2 -9.5°
